Ponca City, OK

1:00 AM CDT on April 21, 2018 (GMT -0500)
Ponca City Municipal

Weather History for KPNC - October, 2013

Change the Weather History Date:

Monday, October 28, 2013

  Actual Average Record
Temperature  
Mean Temperature 60 °F -  
Max Temperature 70 °F 69 °F 90 °F (1950)
Min Temperature 50 °F 45 °F 25 °F (2008)
Degree Days  
Heating Degree Days 6    
Growing Degree Days 10 (Base 50)    
Moisture  
Dew Point 53 °F    
Average Humidity 79    
Maximum Humidity 100    
Minimum Humidity 60    
Precipitation  
Precipitation 0.00 in - - ()
Sea Level Pressure  
Sea Level Pressure 30.02 in    
Wind  
Wind Speed 9 mph (SSE)    
Max Wind Speed 18 mph    
Max Gust Speed 23 mph    
Visibility 8 miles    
Events Rain    
Averages and records for this station are not official NWS values.
T = Trace of Precipitation, MM = Missing Value Source: NWS Daily Summary

Daily Weather History Graph

Daily Weather History Graph

Search for Another Location

Airport or City:

Astronomy

Oct. 28, 2013 Rise Set
Actual Time 7:48 AM CDT 6:35 PM CDT
Civil Twilight 7:21 AM CDT 7:01 PM CDT
Nautical Twilight 6:51 AM CDT 7:32 PM CDT
Astronomical Twilight 6:21 AM CDT 8:02 PM CDT
Moon 1:51 AM CDT (10/28) 3:09 PM CDT (10/28)
Length of Visible Light 11h 40m
Length of Day
10h 47m
Waning Crescent, 34% of the Moon is Illuminated
Oct 28
Waning Crescent
Nov 3
New
Nov 9
First Quarter
Nov 17
Full
Nov 25
Last Quarter

Hourly Weather History & Observations

Time (CDT) Temp. Dew Point Humidity Pressure Visibility Wind Dir Wind Speed Gust Speed Precip Events Conditions
12:53 AM 54.0 °F 42.1 °F 64% 29.97 in 10.0 mi South 4.6 mph - N/A   Clear
1:53 AM 52.0 °F 46.0 °F 80% 29.97 in 10.0 mi South 5.8 mph - N/A   Clear
2:53 AM 51.1 °F 46.9 °F 86% 29.98 in 10.0 mi South 3.5 mph - N/A   Clear
3:37 AM 51.8 °F 48.2 °F 88% 29.99 in 6.0 mi South 8.1 mph - N/A   Scattered Clouds
3:44 AM 51.8 °F 48.2 °F 88% 29.99 in 2.5 mi South 9.2 mph 16.1 mph N/A   Mostly Cloudy
3:53 AM 50.0 °F 48.9 °F 96% 29.99 in 0.8 mi South 8.1 mph - N/A   Mist
4:53 AM 54.0 °F 53.1 °F 97% 29.99 in 1.5 mi South 5.8 mph - N/A   Overcast
5:05 AM 53.6 °F 53.6 °F 100% 30.01 in 2.5 mi Variable 4.6 mph - N/A   Overcast
5:12 AM 53.6 °F 53.6 °F 100% 30.01 in 4.0 mi South 5.8 mph - N/A   Overcast
5:29 AM 55.4 °F 53.6 °F 94% 30.01 in 5.0 mi SSE 9.2 mph - N/A   Overcast
5:53 AM 57.0 °F 54.0 °F 89% 30.00 in 7.0 mi SSE 10.4 mph 18.4 mph N/A   Overcast
6:53 AM 55.9 °F 53.1 °F 90% 30.01 in 6.0 mi SSE 10.4 mph - N/A   Mostly Cloudy
7:21 AM 55.4 °F 53.6 °F 94% 30.03 in 6.0 mi SE 10.4 mph - N/A   Scattered Clouds
7:53 AM 55.9 °F 54.0 °F 93% 30.03 in 7.0 mi SSE 10.4 mph - N/A   Mostly Cloudy
8:53 AM 57.0 °F 54.0 °F 89% 30.06 in 7.0 mi South 6.9 mph 17.3 mph N/A   Overcast
9:53 AM 57.0 °F 54.0 °F 89% 30.08 in 6.0 mi SSE 10.4 mph - N/A   Overcast
10:53 AM 57.9 °F 54.0 °F 87% 30.09 in 7.0 mi SSE 11.5 mph - N/A   Overcast
11:43 AM 62.6 °F 53.6 °F 72% 30.09 in 10.0 mi SSE 16.1 mph - N/A   Overcast
11:53 AM 62.1 °F 54.0 °F 75% 30.08 in 10.0 mi South 9.2 mph 19.6 mph N/A   Mostly Cloudy
12:23 PM 64.4 °F 53.6 °F 68% 30.08 in 10.0 mi SE 13.8 mph - N/A   Mostly Cloudy
12:41 PM 66.2 °F 55.4 °F 68% 30.07 in 10.0 mi SSE 15.0 mph - N/A   Scattered Clouds
12:53 PM 66.9 °F 55.0 °F 66% 30.06 in 10.0 mi SE 13.8 mph - N/A   Clear
1:43 PM 69.8 °F 55.4 °F 60% 30.05 in 10.0 mi South 11.5 mph 20.7 mph N/A   Mostly Cloudy
1:53 PM 68.0 °F 55.0 °F 63% 30.03 in 10.0 mi SSE 9.2 mph - N/A   Overcast
2:53 PM 68.0 °F 55.0 °F 63% 30.01 in 10.0 mi SSE 11.5 mph - N/A   Overcast
3:53 PM 68.0 °F 55.0 °F 63% 30.00 in 10.0 mi SSE 17.3 mph - N/A   Overcast
4:53 PM 68.0 °F 55.0 °F 63% 29.99 in 10.0 mi SE 13.8 mph - N/A   Overcast
5:53 PM 66.9 °F 55.0 °F 66% 29.99 in 10.0 mi SSE 12.7 mph - N/A   Overcast
6:53 PM 66.0 °F 55.0 °F 68% 30.00 in 10.0 mi SSE 11.5 mph - N/A   Overcast
7:53 PM 66.0 °F 55.9 °F 70% 30.02 in 10.0 mi SSE 15.0 mph 23.0 mph N/A   Overcast
8:53 PM 64.9 °F 55.9 °F 73% 30.01 in 10.0 mi SE 16.1 mph - N/A   Overcast
9:53 PM 64.9 °F 55.9 °F 73% 30.04 in 10.0 mi SE 13.8 mph 20.7 mph N/A   Overcast
10:28 PM 64.4 °F 55.4 °F 73% 30.04 in 10.0 mi SE 18.4 mph - 0.00 in Rain Light Rain
10:53 PM 63.0 °F 57.0 °F 81% 30.02 in 9.0 mi SE 15.0 mph - 0.00 in Rain Light Rain
11:53 PM 62.1 °F 57.9 °F 86% 30.00 in 10.0 mi SE 12.7 mph - 0.00 in   Overcast